Temperature
-1 0 0 -0 0 -0 -1 -1 -0 0 0 1 1 1 1 2 2 1 1 1 1 1 1 2 2 2 2 2 2 2 2 3 2 2 2 3 3 3 3 3 3 3 3 3
-1 -0 -1 -1 -0 -0 -0 -0 -1 -0 0 1 1 1 1 1 1 1 1 1 1 1 1 1 1 1 1 1 1 2 2 2 2 2 2 2 2 2 2 2 2 2 2 2
-1 -1 -1 -1 -1 -0 -1 -1 -1 -0 0 0 0 0 1 1 1 1 1 1 1 1 1 1 1 1 1 1 1 1 1 1 1 1 1 1 1 1 1 2 2 1 1 1
-3 -2 -1 1 0 -0 -0 -1 -1 -1 -0 -0 0 1 1 1 1 1 1 1 1 0 0 0 0 0 0 1 1 1 1 1 0 0 0 0 1 1 1 1 1 1 1 1
-3 -3 -2 -0 -0 -1 -1 -1 -1 -1 -1 -0 -0 -0 0 1 1 1 1 1 0 0 0 0 0 0 0 0 0 -0 -0 0 0 -0 -0 -0 -0 0 0 0 0 0 0 0
-4 -3 -2 0 0 0 -1 -1 -1 -1 -1 -1 -1 -2 -1 1 1 1 1 0 0 -0 -0 -0 -0 -0 -0 -0 -0 -0 -0 -0 -0 -1 -1 -1 -0 -0 -0 -0 -0 -0 -0 -0
-4 -4 -2 -1 -1 -0 -1 -0 0 0 -0 -1 -1 -1 0 0 0 0 0 -0 -0 -0 -1 -1 -1 -1 -1 -1 -1 -1 -1 -1 -1 -1 -1 -1 -1 -1 -1 -1 -1 -1 -1 -1
-4 -4 -2 -1 -1 -1 -1 1 1 1 1 -0 -0 -0 -0 -0 -0 -0 -1 -1 -1 -1 -1 -1 -1 -1 -1 -1 -1 -1 -1 -2 -2 -2 -2 -2 -1 -1 -2 -2 -2 -2 -2 -1
-3 -2 -1 -0 -0 1 1 1 1 1 1 0 -0 -0 -0 -1 -1 -1 -1 -1 -1 -1 -1 -1 -2 -2 -2 -2 -2 -2 -2 -2 -2 -2 -2 -2 -2 -2 -2 -2 -2 -2 -2 -2
-4 -3 -2 -1 0 1 1 1 1 0 0 -0 -0 -1 -1 -1 -1 -1 -1 -2 -2 -2 -2 -2 -2 -2 -2 -2 -2 -3 -3 -3 -3 -3 -3 -3 -3 -3 -2 -3 -3 -3 -3 -3
-4 -4 -2 -1 0 1 0 0 0 -0 -0 -0 -1 -1 -1 -1 -1 -2 -2 -2 -2 -2 -2 -2 -3 -3 -3 -3 -3 -3 -3 -3 -3 -3 -3 -3 -3 -3 -3 -3 -3 -3 -3 -3
-3 -2 -3 -1 0 0 -0 -0 -0 -0 -1 -1 -1 -1 -1 -2 -2 -2 -2 -2 -2 -3 -3 -3 -3 -3 -3 -3 -3 -3 -3 -3 -3 -4 -4 -4 -4 -3 -3 -3 -3 -3 -3 -3
-1 -1 -1 -1 -0 -1 -1 -1 -1 -1 -1 -1 -1 -2 -2 -2 -2 -2 -3 -3 -3 -3 -3 -3 -4 -4 -3 -4 -4 -4 -4 -4 -4 -4 -4 -4 -4 -4 -4 -4 -3 -3 -3 -4
-1 -1 -2 -1 -1 -1 -1 -1 -2 -2 -2 -2 -2 -2 -2 -3 -3 -3 -3 -3 -3 -4 -4 -4 -4 -4 -4 -4 -4 -4 -4 -4 -4 -4 -4 -4 -4 -4 -4 -4 -4 -4 -4 -4
-2 -2 -2 -2 -2 -2 -2 -2 -2 -2 -2 -2 -3 -3 -3 -3 -3 -3 -3 -4 -4 -4 -4 -4 -4 -4 -4 -4 -4 -4 -4 -4 -4 -4 -5 -5 -5 -5 -5 -5 -5 -4 -4 -4
-2 -2 -2 -3 -3 -3 -3 -3 -3 -3 -3 -3 -3 -3 -3 -3 -4 -4 -4 -4 -4 -4 -4 -4 -5 -5 -5 -5 -5 -5 -5 -5 -5 -5 -5 -5 -5 -5 -5 -5 -5 -5 -5 -4
-3 -3 -3 -3 -3 -3 -3 -3 -3 -3 -4 -4 -3 -3 -4 -4 -4 -4 -4 -5 -5 -5 -5 -5 -5 -5 -5 -5 -5 -5 -5 -5 -5 -5 -5 -5 -5 -6 -5 -5 -6 -5 -5 -5
-3 -3 -3 -4 -4 -4 -4 -4 -4 -4 -4 -4 -4 -4 -4 -5 -5 -5 -5 -5 -5 -5 -5 -5 -5 -5 -5 -5 -6 -6 -6 -5 -5 -5 -6 -6 -6 -6 -6 -6 -6 -6 -6 -5
-4 -4 -4 -4 -4 -4 -4 -4 -4 -4 -4 -4 -5 -5 -5 -5 -5 -5 -5 -6 -6 -6 -6 -6 -6 -6 -6 -6 -6 -6 -6 -6 -6 -6 -6 -6 -6 -6 -6 -6 -6 -6 -6 -6
-4 -4 -4 -4 -4 -5 -5 -5 -5 -5 -5 -5 -5 -5 -5 -6 -6 -6 -6 -6 -6 -6 -6 -6 -6 -6 -6 -6 -6 -6 -7 -7 -6 -6 -6 -6 -7 -7 -6 -6 -6 -6 -6 -6
-5 -5 -5 -5 -5 -5 -5 -5 -5 -5 -5 -6 -6 -6 -6 -6 -6 -6 -6 -6 -6 -6 -6 -6 -7 -7 -7 -7 -7 -7 -7 -7 -7 -7 -7 -7 -7 -7 -7 -7 -6 -6 -6 -6
-5 -5 -5 -5 -5 -5 -5 -6 -6 -6 -6 -6 -6 -6 -6 -6 -6 -7 -7 -7 -7 -7 -7 -7 -7 -7 -7 -7 -7 -7 -7 -7 -7 -7 -7 -7 -7 -7 -7 -7 -7 -7 -7 -7
-6 -6 -6 -6 -6 -6 -6 -6 -6 -6 -6 -6 -6 -7 -7 -7 -7 -7 -7 -7 -7 -7 -7 -7 -7 -7 -7 -7 -7 -7 -7 -7 -7 -7 -7 -7 -7 -7 -7 -7 -7 -7 -7 -7
-6 -6 -6 -7 -7 -6 -6 -6 -6 -7 -7 -7 -7 -7 -7 -7 -7 -7 -7 -7 -7 -7 -7 -7 -7 -8 -8 -8 -8 -8 -7 -7 -7 -7 -7 -7 -7 -7 -7 -7 -7 -7 -7 -7
-7 -7 -7 -7 -7 -7 -7 -7 -7 -7 -7 -7 -7 -7 -7 -8 -8 -8 -7 -7 -8 -8 -8 -8 -8 -8 -8 -8 -8 -8 -8 -8 -8 -8 -7 -7 -7 -7 -7 -7 -7 -7 -7 -7
-7 -7 -7 -7 -7 -7 -8 -8 -8 -8 -8 -8 -8 -8 -8 -8 -8 -8 -8 -8 -8 -8 -8 -8 -8 -8 -8 -8 -8 -8 -8 -8 -8 -8 -8 -8 -8 -8 -8 -7 -7 -7 -7 -7
-8 -8 -8 -8 -8 -8 -8 -8 -8 -8 -8 -8 -8 -8 -8 -8 -8 -8 -8 -8 -8 -8 -8 -8 -8 -8 -8 -8 -8 -8 -8 -8 -8 -8 -8 -8 -8 -8 -8 -8 -8 -8 -8 -8
Wind_Speed
6 5 3 5 7 6 8 8 8 9 9 11 8 7 6 5 4 4 4 3 3 3 3 2 2 2 2 2 2 1 1 1 1 1 0 0 1 2 2 2 2 2 1 1
4 3 3 6 9 9 10 8 9 9 11 10 7 5 5 5 5 5 5 4 4 3 4 3 3 2 2 2 2 1 1 1 1 1 1 0 0 1 2 2 2 2 1 1
3 3 2 6 8 9 6 6 7 11 11 6 5 6 6 6 6 6 5 5 4 4 4 4 3 3 2 3 2 1 1 1 1 1 1 1 1 1 2 2 2 2 1 1
1 2 6 7 3 6 7 8 7 8 7 6 7 7 6 5 5 6 5 5 5 4 4 4 3 3 2 2 1 1 1 1 0 1 1 1 1 1 1 2 2 2 1 1
2 3 7 7 3 4 5 7 7 9 8 7 4 3 4 4 3 5 5 5 4 4 4 3 3 2 2 1 1 1 1 1 1 1 1 1 1 1 1 1 2 2 1 1
3 3 7 6 3 2 3 6 5 6 7 5 0 2 5 4 3 4 4 3 2 2 2 2 3 2 1 1 2 2 3 2 2 2 2 2 2 2 1 1 2 2 1 1
5 5 8 6 2 4 3 7 3 5 6 4 5 6 5 4 4 3 3 3 2 2 2 3 3 2 1 2 3 3 2 2 2 2 2 2 2 1 2 2 1 2 1 1
5 5 9 4 5 6 7 3 2 3 4 5 5 5 4 4 4 3 2 2 2 2 2 3 2 2 2 3 3 2 2 1 1 2 2 1 1 1 1 2 2 2 1 1
9 9 5 5 7 6 3 4 4 4 4 4 4 4 4 3 3 3 3 3 2 2 2 3 2 2 2 3 3 2 1 2 2 2 1 1 2 2 1 1 2 2 2 2
5 8 7 6 6 5 4 5 5 4 4 4 4 5 4 4 3 3 3 3 2 2 2 3 3 2 3 3 2 2 2 2 2 1 1 1 1 2 2 2 2 3 3 3
6 7 5 7 7 7 6 5 4 4 4 5 5 5 4 4 4 4 3 3 2 2 3 3 3 3 3 2 2 2 2 2 2 2 2 2 2 2 3 3 4 4 4 4
8 7 6 6 5 5 6 6 6 5 5 4 5 5 5 5 4 4 3 3 2 3 3 3 3 3 3 2 2 2 2 2 2 2 2 2 2 2 3 4 5 6 7 6
8 6 6 6 5 4 6 6 5 5 5 5 4 4 4 4 4 3 3 3 4 4 3 3 3 3 4 3 2 2 3 3 3 2 2 2 2 2 2 3 3 5 6 6
6 4 5 6 6 5 4 5 4 3 3 4 3 3 3 3 3 3 4 4 4 3 3 3 3 4 4 3 2 3 3 4 3 3 3 3 3 3 3 3 3 3 4 6
6 5 6 5 4 4 3 2 2 3 3 3 3 3 3 3 4 5 4 3 3 3 3 3 3 4 3 3 2 3 3 3 3 3 3 3 3 3 3 3 3 3 3 3
4 3 4 5 6 5 4 3 4 5 4 4 4 4 4 4 4 4 3 2 2 3 4 3 4 4 3 2 2 3 3 4 4 3 3 3 3 3 3 3 3 3 3 3
3 5 5 5 6 6 5 5 5 5 4 5 5 4 3 2 3 3 3 3 3 4 4 4 4 4 3 2 2 3 2 3 4 3 3 3 3 3 3 3 3 3 3 4
5 6 6 6 6 6 6 5 4 4 5 5 4 3 3 3 4 4 4 3 3 3 4 3 4 3 3 2 2 2 2 2 3 3 3 3 3 3 3 3 4 4 3 3
4 5 6 5 6 5 5 5 5 4 4 3 3 4 4 4 4 3 3 2 3 4 4 4 4 2 3 3 3 2 2 2 3 3 3 4 3 3 3 3 3 3 3 2
4 4 4 5 4 4 4 4 3 3 3 3 3 3 3 3 3 3 3 4 4 4 4 4 3 3 3 3 3 2 3 3 3 3 3 3 3 3 3 3 3 3 3 3
4 4 4 3 3 3 3 3 3 3 3 2 3 3 3 3 3 2 2 4 4 3 3 4 2 3 3 3 3 2 2 2 2 3 3 3 3 3 3 3 3 3 3 3
3 3 3 3 3 3 2 2 2 2 2 2 2 2 2 2 2 3 3 4 4 4 2 2 2 3 3 2 1 1 2 2 2 2 2 2 3 3 3 3 3 3 3 3
3 3 3 2 2 2 2 2 1 1 2 2 2 2 3 3 2 2 3 3 3 3 2 2 3 3 2 1 1 1 2 2 2 2 3 3 3 3 3 3 3 3 3 3
2 2 2 2 1 1 1 2 1 1 1 2 2 2 2 2 2 2 3 3 3 3 2 3 3 3 2 0 1 1 1 2 2 2 2 2 2 2 2 3 3 3 3 3
2 2 1 1 1 1 1 1 1 1 1 1 2 2 2 2 2 2 2 2 3 2 1 2 3 3 1 1 1 1 2 2 2 2 2 2 2 2 2 2 2 3 3 3
1 1 2 2 2 1 1 1 1 1 1 1 2 2 1 1 1 1 1 1 2 2 1 1 2 2 1 1 1 2 2 2 2 2 1 2 2 2 2 2 3 3 3 3
1 1 1 1 1 1 1 1 1 1 1 2 2 2 1 1 1 1 1 1 1 1 1 1 1 1 1 1 1 1 1 1 2 1 1 2 2 2 2 3 3 3 3 3
Wind_Direction
252 260 228 230 239 218 210 214 220 245 250 268 270 269 274 280 294 302 296 299 305 316 321 324 331 324 315 314 314 309 133 133 200 208 182 120 137 164 161 157 159 155 149 170
274 263 240 261 254 234 231 230 237 259 268 265 268 264 268 275 279 274 275 279 288 303 313 316 308 304 307 307 303 281 197 196 198 165 156 168 171 161 155 154 143 142 156 180
260 305 343 271 241 219 220 220 206 234 251 271 279 271 263 263 260 255 257 265 270 278 284 291 292 285 282 287 299 285 231 225 205 189 183 205 191 159 175 176 151 150 166 183
229 38 238 246 228 205 219 238 227 245 262 257 257 266 262 251 247 250 253 258 264 271 276 283 288 291 288 301 305 293 279 260 220 195 204 207 183 184 199 179 167 179 186 204
171 235 272 284 256 195 207 257 231 238 261 270 278 303 287 262 248 252 252 255 256 256 262 277 284 287 305 322 310 284 260 249 232 205 218 220 221 223 210 187 195 207 204 197
169 204 241 253 249 182 135 273 248 224 245 252 203 285 275 282 287 281 278 272 268 270 280 277 281 281 297 301 293 277 260 248 240 215 222 231 233 241 245 218 223 213 219 220
194 226 261 258 233 127 173 251 258 221 234 226 220 236 263 286 286 276 274 275 273 266 264 271 277 276 283 293 285 284 276 262 257 238 232 231 234 242 233 229 222 218 219 246
177 209 251 230 151 187 224 253 244 240 233 230 243 264 276 280 284 280 276 281 270 264 277 285 281 269 281 286 293 298 286 266 260 260 250 236 215 239 233 208 208 221 222 249
197 217 237 193 203 224 212 229 242 243 244 227 244 261 271 275 277 275 274 277 281 266 277 288 280 256 269 287 298 296 289 281 272 267 259 236 221 226 239 220 216 223 221 237
235 256 253 245 247 251 237 232 240 238 238 221 236 253 263 269 276 276 278 276 280 265 271 287 295 290 273 277 279 273 272 279 275 260 263 261 243 225 223 224 226 226 223 231
244 264 287 267 245 244 246 241 245 252 243 231 230 247 248 258 268 269 274 274 262 248 255 271 287 296 292 269 249 261 267 267 266 264 256 261 263 243 233 236 229 230 232 228
231 229 220 250 254 240 235 243 240 244 255 249 231 240 248 254 259 260 263 265 267 268 266 274 284 292 291 274 243 237 256 256 253 252 248 247 258 288 272 254 255 254 247 244
232 237 232 257 270 253 241 248 251 242 239 250 250 238 244 255 260 260 262 259 260 264 269 271 277 285 286 276 252 238 244 249 250 247 244 243 242 247 274 291 268 260 253 250
239 232 254 257 259 262 252 253 254 255 252 247 248 250 249 259 267 264 260 258 259 263 268 267 268 276 280 272 258 251 252 251 249 246 242 241 243 244 247 258 276 280 268 256
254 235 234 253 266 270 261 251 258 269 273 274 261 254 249 250 257 264 264 263 266 265 267 266 268 275 281 273 260 254 255 252 247 245 243 240 242 242 242 248 252 262 272 264
264 260 245 247 254 262 260 245 245 256 261 262 264 261 254 251 258 267 267 252 248 257 262 263 266 271 272 264 261 260 259 256 254 249 243 237 236 235 238 240 244 245 249 255
249 257 252 256 256 259 254 246 241 247 251 252 254 259 261 261 268 270 275 272 258 257 258 256 266 273 270 261 253 253 259 259 261 256 244 236 232 231 232 234 240 245 253 257
235 244 243 244 247 252 257 254 249 247 247 249 251 248 241 240 250 259 271 284 289 288 276 265 265 272 272 264 258 254 254 255 254 249 248 239 235 231 233 236 239 244 254 261
255 256 260 257 246 241 246 252 254 250 248 238 233 238 243 246 250 259 269 269 267 275 280 274 275 271 268 268 270 249 251 253 256 251 246 242 242 236 235 235 237 238 242 249
273 269 268 267 256 243 246 250 249 252 245 231 230 243 255 259 255 254 257 257 254 260 269 274 270 262 263 265 272 245 242 243 247 248 245 236 233 234 235 238 239 240 242 246
279 279 274 270 274 269 256 248 239 246 252 230 224 235 251 263 256 246 253 274 281 268 264 272 270 263 262 264 267 241 237 239 242 243 241 239 238 238 237 240 245 247 245 246
280 278 276 279 282 289 287 267 245 240 248 253 252 251 257 267 265 260 253 254 267 280 282 261 264 271 278 274 236 238 242 241 240 239 237 235 233 235 238 239 242 248 248 246
283 281 281 277 268 278 296 283 256 235 238 246 247 248 252 258 248 245 272 268 262 279 289 264 279 286 294 275 240 239 240 240 243 243 243 240 238 239 240 242 244 247 247 249
287 290 290 288 282 279 297 301 298 277 261 265 258 249 248 265 277 260 261 278 293 297 291 283 293 298 315 321 261 255 252 252 251 252 252 252 253 251 249 247 249 254 255 258
287 291 292 292 282 273 277 300 326 330 327 314 303 293 275 249 251 270 277 276 290 308 309 298 305 314 330 304 280 271 266 260 257 253 253 260 261 259 259 256 256 258 260 259
298 287 276 267 259 263 265 257 262 288 302 314 318 313 313 309 287 283 290 285 284 316 323 306 304 308 309 294 284 282 279 286 295 298 284 276 274 272 270 269 269 264 261 262
323 314 315 323 318 287 265 247 243 266 271 271 287 294 305 310 305 305 304 304 314 327 324 322 318 310 306 302 298 296 297 295 292 291 287 280 275 272 272 270 271 270 270 266
Height
1498 1495 1496 1496 1495 1496 1499 1497 1498 1489 1487 1479 1477 1476 1474 1472 1470 1469 1467 1466 1464 1463 1461 1460 1459 1459 1458 1458 1458 1458 1458 1458 1458 1459 1460 1461 1462 1463 1464 1465 1466 1467 1468 1468
1498 1494 1495 1494 1490 1490 1490 1490 1489 1486 1482 1474 1473 1473 1471 1470 1468 1467 1465 1464 1462 1461 1460 1458 1457 1457 1456 1455 1455 1455 1455 1455 1456 1457 1457 1458 1458 1459 1460 1461 1462 1463 1464 1465
1499 1497 1495 1493 1484 1483 1484 1482 1483 1482 1475 1471 1471 1470 1468 1466 1465 1463 1462 1462 1460 1459 1457 1456 1455 1455 1454 1453 1453 1453 1452 1453 1454 1454 1455 1455 1455 1456 1457 1458 1459 1460 1461 1461
1502 1502 1499 1481 1475 1475 1476 1475 1475 1473 1470 1469 1467 1466 1464 1463 1462 1461 1460 1459 1458 1457 1455 1454 1453 1453 1452 1451 1451 1450 1450 1450 1451 1452 1452 1452 1453 1453 1454 1455 1456 1456 1457 1458
1504 1503 1493 1478 1473 1474 1476 1473 1468 1468 1466 1465 1465 1463 1461 1460 1459 1458 1457 1456 1455 1454 1453 1452 1451 1451 1450 1449 1449 1448 1448 1448 1449 1449 1449 1449 1450 1450 1451 1452 1452 1453 1454 1454
1502 1500 1492 1473 1469 1468 1472 1471 1463 1463 1462 1462 1463 1465 1460 1457 1456 1455 1454 1454 1452 1451 1451 1450 1449 1448 1448 1447 1447 1446 1446 1446 1447 1447 1447 1447 1447 1447 1448 1448 1449 1450 1450 1451
1498 1497 1483 1469 1467 1468 1476 1468 1460 1459 1458 1459 1459 1458 1456 1454 1453 1452 1452 1451 1450 1449 1448 1447 1447 1446 1445 1444 1444 1444 1444 1444 1444 1444 1444 1444 1444 1444 1445 1445 1446 1446 1447 1448
1493 1494 1481 1464 1465 1467 1462 1458 1457 1456 1456 1456 1455 1454 1453 1452 1450 1450 1449 1448 1447 1446 1445 1445 1444 1443 1442 1442 1442 1442 1442 1442 1441 1441 1441 1441 1441 1441 1442 1442 1443 1443 1443 1444
1474 1469 1460 1459 1458 1456 1456 1455 1455 1454 1453 1453 1452 1451 1450 1449 1448 1447 1446 1445 1445 1443 1442 1442 1441 1441 1440 1439 1439 1439 1439 1438 1438 1438 1438 1438 1438 1438 1439 1439 1440 1440 1440 1440
1467 1460 1456 1455 1454 1454 1453 1453 1452 1451 1451 1450 1449 1448 1447 1446 1445 1444 1443 1443 1442 1441 1440 1439 1438 1438 1437 1437 1436 1436 1435 1435 1435 1435 1435 1435 1435 1435 1436 1436 1436 1437 1437 1437
1461 1455 1453 1450 1450 1450 1450 1449 1449 1448 1448 1447 1446 1445 1444 1443 1442 1441 1440 1440 1439 1438 1437 1436 1435 1434 1434 1434 1434 1433 1432 1432 1432 1432 1432 1431 1432 1432 1432 1433 1433 1434 1434 1434
1452 1448 1449 1446 1446 1446 1445 1445 1444 1444 1443 1443 1443 1442 1441 1440 1439 1438 1437 1436 1435 1434 1433 1433 1432 1431 1431 1431 1430 1430 1429 1429 1429 1429 1429 1428 1428 1428 1429 1429 1430 1430 1431 1431
1443 1443 1443 1442 1442 1442 1441 1440 1440 1440 1440 1439 1439 1438 1438 1437 1436 1435 1434 1433 1432 1431 1430 1429 1429 1428 1428 1427 1427 1427 1426 1426 1426 1425 1425 1425 1425 1425 1424 1425 1426 1426 1426 1427
1439 1440 1439 1438 1438 1438 1437 1436 1436 1436 1435 1435 1435 1434 1433 1433 1432 1431 1430 1429 1428 1427 1427 1426 1425 1425 1424 1424 1424 1423 1423 1423 1422 1422 1422 1421 1421 1421 1421 1421 1421 1421 1422 1423
1435 1435 1435 1434 1434 1433 1433 1432 1432 1431 1431 1431 1430 1430 1429 1428 1428 1427 1426 1425 1424 1424 1423 1423 1422 1421 1421 1420 1420 1420 1419 1419 1418 1418 1418 1418 1418 1418 1418 1418 1418 1418 1418 1419
1430 1431 1430 1430 1429 1428 1428 1428 1427 1427 1427 1426 1426 1426 1425 1425 1424 1423 1422 1421 1421 1420 1420 1419 1419 1418 1418 1417 1416 1416 1415 1415 1415 1414 1414 1414 1414 1414 1414 1414 1414 1414 1415 1415
1427 1426 1425 1425 1424 1424 1424 1424 1423 1423 1423 1423 1422 1422 1421 1421 1420 1419 1418 1418 1417 1417 1416 1416 1415 1415 1414 1414 1413 1412 1411 1411 1411 1411 1411 1411 1411 1411 1411 1411 1411 1411 1411 1411
1423 1422 1422 1421 1420 1420 1419 1419 1419 1419 1419 1419 1418 1418 1417 1417 1416 1415 1415 1414 1413 1413 1413 1412 1412 1411 1411 1410 1409 1409 1408 1407 1407 1407 1407 1407 1407 1407 1407 1407 1407 1407 1408 1408
1418 1418 1417 1417 1416 1416 1415 1415 1415 1415 1415 1414 1414 1414 1413 1413 1413 1412 1412 1411 1410 1409 1409 1409 1408 1408 1407 1406 1406 1405 1405 1404 1404 1404 1404 1404 1404 1404 1404 1404 1404 1404 1404 1405
1414 1414 1413 1413 1412 1412 1411 1411 1411 1411 1410 1410 1410 1410 1409 1409 1409 1408 1408 1407 1407 1406 1406 1405 1405 1404 1404 1403 1403 1402 1402 1401 1401 1401 1401 1401 1401 1401 1401 1401 1401 1401 1402 1402
1411 1410 1409 1409 1408 1408 1407 1407 1407 1407 1407 1407 1406 1406 1406 1406 1405 1405 1404 1404 1404 1403 1403 1402 1402 1401 1400 1400 1399 1399 1399 1399 1399 1398 1398 1398 1398 1398 1398 1398 1398 1398 1398 1399
1408 1407 1406 1405 1405 1404 1404 1404 1404 1404 1403 1403 1403 1403 1403 1402 1402 1401 1401 1401 1401 1400 1400 1399 1399 1398 1398 1397 1397 1396 1396 1396 1396 1396 1396 1396 1395 1395 1395 1395 1395 1395 1395 1395
1405 1404 1403 1402 1402 1401 1401 1401 1401 1401 1401 1400 1400 1400 1400 1399 1399 1398 1398 1398 1398 1397 1397 1396 1396 1396 1395 1394 1394 1394 1393 1393 1393 1393 1393 1393 1393 1393 1392 1392 1392 1392 1392 1392
1402 1401 1400 1400 1399 1399 1398 1398 1398 1398 1398 1398 1398 1397 1397 1396 1396 1396 1396 1395 1395 1395 1394 1394 1394 1393 1393 1392 1392 1391 1391 1391 1391 1390 1390 1390 1390 1390 1390 1389 1389 1389 1389 1389
1400 1399 1398 1398 1397 1396 1396 1396 1395 1395 1395 1395 1395 1395 1395 1394 1394 1393 1393 1393 1393 1392 1392 1392 1392 1391 1390 1390 1389 1389 1389 1388 1388 1388 1387 1387 1387 1387 1387 1387 1386 1386 1386 1385
1398 1397 1396 1396 1395 1395 1394 1394 1393 1393 1393 1393 1393 1393 1392 1392 1392 1391 1391 1391 1391 1390 1390 1390 1389 1389 1388 1388 1387 1387 1386 1386 1385 1385 1385 1384 1384 1384 1384 1384 1383 1383 1383 1382
1397 1396 1395 1394 1394 1393 1393 1392 1391 1391 1391 1391 1391 1390 1390 1390 1390 1389 1389 1389 1389 1388 1388 1388 1387 1387 1386 1386 1385 1384 1384 1383 1383 1383 1382 1382 1381 1381 1381 1381 1380 1380 1380 1379